TIME,DELAY(SENSOR),PRES,T(CTD),SAL,OXYGEN,RAWTEMP,T(OPTODE),TCPHASE,FLUOR,BETA(BETA700),BETA(BETA412),BETA(BETA440),CDOM,C(CSC),ED(ED412.40),ED(ED444.00),ED(ED489.70),ED(ED554.30),LU(LU411.80),LU(LU443.40),LU(LU489.60),LU(LU554.10),COMP,TILTX,TILTX(TILTY),CHECK
1371764572,5808,496.6400146484375000,6.3480000495910645,34.1300010681152340,68.2311706542968800,607.7003784179688000,6.3352317810058590,50.4488487243652340,52,103,90,79,79,14782,2147749696,2147425691,2148010432,2147871341,2147628077,2147071771,2148247040,2147201024,1886,4,12,32277
1371764671,5808,486.1300048828125000,6.4594001770019530,34.1273002624511700,73.8968124389648400,604.4376220703125000,6.4408230781555180,49.7026710510253900,52,105,82,80,79,14779,2147749074,2147425142,2148009417,2147874066,2147633097,2147068928,2148247396,2147202752,1139,4,13,12242
1371764781,5809,474.3299865722656000,6.5989999771118160,34.1074981689453100,79.2436828613281200,599.9719848632812000,6.5851731300354000,48.9970817565918000,51,104,85,81,77,14784,2147748022,2147424960,2148006573,2147874715,2147631350,2147070445,2148243739,2147203794,636,4,13,592
1371764900,5808,463.1099853515625000,6.7751002311706540,34.1034011840820300,86.1689071655273400,594.7786254882812000,6.7528061866760250,48.1220397949218750,52,104,86,80,78,14785,2147747766,2147424850,2148008091,2147870765,2147631030,2147074550,2148242395,2147202889,2876,4,13,20337
1371765021,5806,452.0299987792969000,6.9092001914978030,34.0932006835937500,92.7639465332031200,589.6536865234375000,6.9179821014404300,47.3090705871582000,51,105,88,79,77,14781,2147747693,2147423533,2148008073,2147872932,2147628397,2147076790,2148244726,2147203401,2127,4,13,37942
1371765144,5807,441.2600097656250000,7.0672998428344730,34.0873985290527340,100.3028030395507800,585.2468872070312000,7.0598177909851070,46.4320907592773440,50,107,87,79,77,14782,2147744841,2147423899,2148009005,2147872978,2147627565,2147078107,2148245028,2147205522,1222,4,13,4895
1371765276,5810,430.5799865722656000,7.2533998489379880,34.0821990966796900,107.0664978027343800,579.8803710937500000,7.2323069572448730,45.6472892761230500,51,104,85,79,77,14785,2147742738,2147425170,2148008822,2147874413,2147629083,2147075849,2148240740,2147201746,3442,4,13,33156
1371765421,5809,419.9500122070312500,7.4658999443054200,34.0825996398925800,115.2177963256836000,573.2443237304688000,7.4452400207519530,44.7314186096191400,51,106,84,79,76,14782,2147743515,2147424429,2148006226,2147875227,2147623021,2147075712,2148237686,2147202157,2908,4,13,56801
1371765586,5810,409.0499877929687500,7.6378998756408690,34.0834007263183600,119.5084991455078100,567.8336181640625000,7.6185698509216310,44.2266197204589840,51,105,87,81,77,14784,2147741641,2147423076,2148006336,2147872118,2147626834,2147078235,2148235410,2147204690,2309,4,13,53501
1371765763,5808,397.2999877929687500,8.0193996429443360,34.0924987792968750,128.3444976806640600,555.8225708007812000,8.0024232864379880,43.2013893127441400,50,103,84,80,75,14781,2147743332,2147423113,2148008274,2147874441,2147624822,2147077814,2148239277,2147203821,427,4,13,3936
1371765895,5807,386.4400024414062500,8.3085002899169920,34.0990982055664060,134.8132934570312500,546.4033203125000000,8.3026027679443360,42.4619102478027340,50,107,90,80,75,14779,2147740260,2147425700,2148008731,2147874249,2147618459,2147084086,2148234870,2147203154,3028,4,13,54317
1371766038,5806,374.3900146484375000,8.5749998092651370,34.1002998352050800,144.0484008789062500,537.9995117187500000,8.5698070526123050,41.5237007141113300,50,106,91,80,73,14779,2147736393,2147425974,2148005037,2147872128,2147619474,2147087433,2148238262,2147204525,2190,3,12,64631
1371766152,5808,363.0599975585937500,8.8367996215820310,34.0918998718261700,155.3209075927734400,530.1422119140625000,8.8191261291503900,40.4704208374023440,50,106,87,80,74,14776,2147740260,2147423113,2148008795,2147870857,2147621906,2147081124,2148235565,2147201929,1129,4,13,20300
1371766262,5808,351.1400146484375000,9.0888004302978520,34.0900993347168000,166.0111999511718800,521.9738159179688000,9.0778141021728520,39.5096893310546900,50,106,84,80,73,14775,2147738797,2147425654,2148010093,2147873837,2147617782,2147090477,2148229120,2147201581,454,3,13,32539
1371766381,5805,340.0899963378906000,9.5078001022338870,34.0980987548828100,178.6092987060547000,508.7843933105469000,9.4944562911987300,38.3755989074707000,50,105,86,80,71,14775,2147735515,2147424585,2148010569,2147872704,2147616411,2147101467,2148229440,2147207067,3019,4,13,32380
1371766513,5809,330.1400146484375000,9.7992000579833980,34.1068000793457000,185.5299987792968800,499.6514892578125000,9.7822246551513670,37.7484703063964840,50,107,85,80,71,14782,2147735753,2147429394,2148016201,2147871469,2147614720,2147102509,2148229796,2147204160,2220,4,13,3006
1371766689,5807,315.8699951171875000,10.2543001174926760,34.1240005493164060,198.5323028564453000,484.9332885742187500,10.2447595596313480,36.6610908508300800,49,106,87,79,70,14777,2147733065,2147427254,2148022820,2147871744,2147612864,2147101092,2148226468,2147204288,1870,3,14,6311
1371766799,5810,304.8500061035156000,10.5705003738403320,34.1263999938964840,195.5924072265625000,474.7853088378906000,10.5628404617309570,36.6759300231933600,49,106,86,79,70,14772,2147731565,2147429019,2148028461,2147871488,2147610587,2147104557,2148233024,2147206921,2293,3,13,27306
1371766909,5811,293.7300109863281000,10.8492002487182620,34.1370010375976560,199.1412963867187500,465.0362854003906000,10.8678102493286130,36.2925682067871100,50,105,87,80,71,14777,2147734235,2147432301,2148038482,2147872704,2147608914,2147107995,2148231433,2147209453,1009,4,13,9385
1371767010,5806,283.3999938964844000,11.1321001052856450,34.1533012390136700,203.5458068847656200,456.3432922363281000,11.1392498016357420,35.8800697326660160,49,106,87,80,69,14774,2147732973,2147437138,2148052205,2147872329,2147606454,2147108406,2148243044,2147207040,1008,4,13,18742
1371767120,5808,272.7799987792969000,11.4027996063232420,34.1587982177734400,205.4837036132812500,447.7715148925781000,11.4064798355102540,35.6245803833007800,49,106,89,81,71,14771,2147731748,2147446080,2148077028,2147870244,2147607670,2147113910,2148246144,2147207140,139,3,14,48024
1371767241,5809,263.0799865722656000,11.9179000854492190,34.1882019042968750,208.9992980957031200,431.8171081542969000,11.9027700424194340,35.1605796813964840,49,104,86,80,69,14780,2147728256,2147453723,2148093997,2147872676,2147602797,2147121106,2148258523,2147206381,2145,3,13,9226
1371767408,5809,252.0099945068359400,12.4976997375488280,34.2384986877441400,215.0764007568359400,413.0826110839844000,12.4838600158691400,34.5160408020019500,49,107,91,80,67,14771,2147727104,2147466870,2148130587,2147873261,2147598336,2147132443,2148269778,2147213632,1843,4,13,2276
1371767584,5807,240.7200012207031200,13.3444004058837890,34.3154983520507800,221.2205047607422000,383.9666137695312500,13.3837299346923830,33.7273216247558600,49,105,89,81,68,14777,2147732141,2147487204,2148183817,2147874998,2147599817,2147155995,2148292516,2147214345,508,3,13,31023
1371767719,5807,229.2599945068359400,13.9890003204345700,34.3506011962890600,221.5171966552734400,364.8720092773437500,13.9720001220703120,33.4221687316894500,48,107,85,80,68,14772,2147728082,2147527149,2148263844,2147874176,2147599488,2147181019,2148330962,2147215652,1983,3,14,58652
1371767829,5807,217.8000030517578000,14.4011001586914060,34.3704986572265600,216.5128021240234400,350.4328918457031000,14.4159898757934570,33.4778900146484400,48,107,89,80,67,14763,2147743341,2147582573,2148384722,2147876909,2147600118,2147219492,2148384393,2147222390,2497,3,13,42997
1371767941,5807,206.6300048828125000,14.9427995681762700,34.4235000610351560,215.6862030029297000,333.1752929687500000,14.9458103179931640,33.2674407958984400,50,110,86,81,65,14765,2147758418,2147665188,2148543652,2147876288,2147602770,2147267181,2148457819,2147227300,1235,3,14,52506
1371768040,5806,197.9400024414062500,15.7597999572753900,34.5051994323730500,213.1385955810547000,306.9450988769531000,15.7496099472045900,33.0238494873046900,54,111,90,80,67,14762,2147779181,2147749769,2148703222,2147877878,2147608457,2147314761,2148533842,2147231213,826,3,14,12659
1371768095,5808,193.7400054931640600,16.0221996307373050,34.5435981750488300,213.5531005859375000,298.3656921386719000,16.0121994018554700,32.8763694763183600,56,111,89,80,66,14758,2147793133,2147800731,2148802870,2147873755,2147613430,2147352694,2148576146,2147239488,623,3,14,65378
1371768150,5806,189.7700042724609400,16.3523006439209000,34.5812988281250000,213.3256988525390600,285.4064025878906000,16.4085998535156250,32.7024612426757800,56,109,88,80,65,14748,2147810331,2147857106,2148892397,2147875922,2147616301,2147377417,2148617810,2147239268,667,2,13,11101
1371768205,5809,186.3999938964843800,16.7381992340087900,34.6271018981933600,215.0433959960937500,274.7426147460937500,16.7346000671386720,32.4559898376464840,56,106,88,81,64,14758,2147829366,2147901769,2148980909,2147878198,2147622217,2147413504,2148660608,2147245037,3073,3,15,42899
1371768279,5807,182.4499969482422000,17.1126003265380860,34.6786994934082000,217.1974029541015600,262.2601928710937500,17.1160297393798830,32.1629104614257800,54,111,88,80,65,14758,2147852544,2147964955,2149082898,2147876708,2147628480,2147454436,2148710720,2147248658,2548,3,15,53131
1371768356,5810,178.8099975585937500,17.8792991638183600,34.7881011962890600,218.4779052734375000,238.7586975097656200,17.8338603973388670,31.7660598754882800,57,113,88,80,65,14750,2147878656,2148034605,2149197074,2147877248,2147640402,2147501696,2148759853,2147252224,2457,3,14,12393
1371768444,5808,174.6900024414062500,18.1576004028320300,34.8265991210937500,219.3654022216797000,227.3204040527343800,18.1831703186035160,31.5610694885253900,60,112,87,81,64,14745,2147919981,2148130038,2149368310,2147878784,2147655744,2147563785,2148845814,2147257115,1360,3,14,45675
1371768532,5807,170.1900024414062500,18.6646995544433600,34.9011001586914060,220.5451049804687500,213.3825073242187500,18.6088199615478500,31.3081703186035160,66,116,86,81,64,14741,2147971721,2148260004,2149589814,2147878957,2147676123,2147640338,2148951158,2147267684,1214,3,15,15933
1371768600,5807,166.3800048828125000,18.7042999267578120,34.9103012084960940,221.5023956298828000,210.6033935546875000,18.6937007904052730,31.2204895019531250,65,114,87,81,63,14736,2148019803,2148385737,2149796242,2147877120,2147700800,2147722038,2149048557,2147274916,1508,2,15,12100
1371768666,5806,162.3899993896484400,18.8267993927001950,34.9309005737304700,221.9075927734375000,206.3961029052734400,18.8222007751464840,31.1425590515136720,66,114,90,80,65,14742,2148092818,2148529243,2150032155,2147881371,2147726966,2147815040,2149166976,2147282989,1490,2,15,61344
1371768732,5807,158.5500030517578000,18.9806003570556640,34.9558982849121100,222.3372039794922000,201.6934967041015600,18.9658508300781250,31.0564498901367200,67,112,86,81,62,14734,2148181888,2148714038,2150333705,2147884598,2147767780,2147923291,2149312347,2147293348,1390,2,15,54624
1371768809,5807,154.4100036621093800,19.0118007659912100,34.9618988037109400,222.9387054443359400,200.0652008056640600,19.0155906677246100,31.0037097930908200,70,111,86,80,63,14735,2148295241,2148932370,2150660498,2147890688,2147818459,2148055963,2149471698,2147307611,917,2,15,4254
1371768886,5805,151.0000000000000000,19.4512996673584000,35.0253982543945300,222.6228027343750000,188.5493011474609400,19.3674392700195300,30.8647003173828120,72,115,88,82,63,14729,2148409846,2149139620,2150994486,2147892891,2147868918,2148186834,2149626971,2147316662,925,2,15,64793
1371769042,5810,147.5700073242187500,19.8691005706787100,35.0797004699707000,223.7801971435547000,173.1378936767578000,19.8385505676269530,30.5993499755859380,84,119,90,82,61,14714,2148548827,2149366171,2151325924,2147895899,2147940662,2148331035,2149778230,2147326665,2133,2,15,42395
1371769282,5809,142.7700042724609400,20.2390003204345700,35.1291999816894500,225.6343994140625000,160.1947937011718800,20.2344608306884770,30.3344707489013670,97,125,89,81,61,14699,2148873380,2149870939,2152080146,2147907538,2148089755,2148604598,2150093293,2147352877,524,2,15,34446
1371769370,5810,138.4600067138672000,20.4500999450683600,35.1622009277343750,226.7649993896484400,153.6235046386718800,20.4355792999267580,30.1913108825683600,102,126,88,82,61,14692,2149184539,2150388461,2152860205,2147919460,2148236205,2148876269,2150425170,2147380964,3485,2,16,16582
1371769447,5806,134.1600036621093800,20.5286998748779300,35.1684989929199200,228.3394012451172000,150.4208984375000000,20.5336303710937500,30.0717391967773440,105,125,89,83,61,14685,2149533915,2150941769,2153698898,2147930678,2148396918,2149168521,2150779437,2147410560,3176,2,16,49803
1371769513,5809,130.4700012207031200,20.7028007507324220,35.1853981018066400,229.2781066894531200,145.1488037109375000,20.6950798034667970,29.9569606781005860,113,125,88,82,61,14671,2149883629,2151497700,2154513910,2147947190,2148555181,2149442294,2151106523,2147434102,3246,2,16,13963
1371769592,5813,126.6200027465820300,20.9750003814697270,35.2123985290527340,230.7980957031250000,136.6441955566406200,20.9556503295898440,29.7722091674804700,130,132,88,83,60,14656,2150365997,2152284544,2155683520,2147971968,2148762304,2149802038,2151550253,2147476251,3371,2,15,48380
1371769691,5807,123.1800003051757800,21.1292991638183600,35.2332992553710940,232.1701965332031200,131.3365936279297000,21.1183490753173830,29.6373901367187500,136,132,91,84,60,14642,2150834971,2153015643,2156707419,2147993362,2148968914,2150132909,2151927643,2147511085,2255,2,15,36151
1371769867,5808,119.4800033569336000,21.2726001739501950,35.2518005371093750,232.9145050048828000,126.5273971557617200,21.2658405303955080,29.5396499633789060,147,132,90,84,59,14628,2151620635,2154182592,2158246208,2148026916,2149284864,2150559552,2152418048,2147558811,1290,2,16,58754
1371770011,5809,114.8600006103515600,21.4463005065917970,35.2793006896972660,233.1685943603515600,120.9007034301757800,21.4384803771972660,29.4549503326416000,139,130,92,83,61,14616,2153276370,2156654244,2161519040,2148099245,2149972370,2151580626,2153597449,2147669686,1199,2,15,60955
1371770099,5809,110.3199996948242200,21.6352005004882800,35.3097991943359400,233.2911987304687500,114.8820037841796900,21.6232395172119140,29.3717803955078120,145,135,89,85,60,14606,2153891062,2157336466,2161995538,2148133348,2150228187,2151800246,2153693622,2147695040,1254,2,15,16976
1371770176,5808,106.2200012207031200,21.6809997558593750,35.3200988769531250,234.4945983886718800,113.1740036010742200,21.6756896972656250,29.2929191589355470,147,130,90,84,59,14597,2156600320,2161506715,2167645449,2148290139,2151382482,2153608996,2155820123,2147900745,1137,2,15,27407
1371770244,5808,102.4899978637695300,21.6903991699218750,35.3216018676757800,234.9120941162109400,112.7964019775390600,21.6872901916503900,29.2686691284179700,155,132,89,84,60,14597,2158479881,2164331273,2171245878,2148412178,2152200603,2154769088,2157084123,2148023872,327,2,15,58687
1371770321,5807,98.4199981689453100,21.7015991210937500,35.3208007812500000,235.2183990478515600,112.3696975708007800,21.7003993988037100,29.2484893798828120,152,131,91,83,60,14575,2161058770,2167983241,2175591460,2148595181,2153309604,2156325577,2158727808,2148206948,3377,2,15,916
1371770376,5807,95.8399963378906200,21.7101993560791000,35.3138008117675800,235.3262023925781200,112.1043014526367200,21.7085399627685550,29.2401790618896500,155,128,90,82,60,14579,2163279158,2171144521,2179291958,2148750628,2154189430,2157543753,2159977334,2148346441,361,2,15,21839
1371770431,5809,93.5500030517578100,21.7427005767822270,35.3031005859375000,235.8612976074218800,111.0942001342773400,21.7395706176757800,29.2021408081054700,155,130,91,83,60,14565,2165813760,2174615296,2183090971,2148897673,2155191616,2158921252,2161330532,2148502235,581,2,16,10805
1371770486,5809,91.6999969482421900,21.7346992492675780,35.2985992431640600,236.4906005859375000,111.3311996459961000,21.7322902679443360,29.1759204864501950,157,132,89,83,59,14473,2168055835,2177444598,2185598848,2148988836,2156119259,2160150665,2162449965,2148625462,961,2,15,38595
1371770543,5805,89.8899993896484400,21.7101001739501950,35.2901992797851560,237.0467987060547000,112.0874023437500000,21.7090606689453120,29.1596508026123050,157,131,89,83,62,14551,2171747794,2182352950,2190739190,2149221604,2157494747,2161981677,2164163675,2148827373,996,2,15,22984
1371770598,5808,88.2699966430664000,21.7168998718261720,35.2285003662109400,237.6015930175781200,112.0126037597656200,21.7113609313964840,29.1330604553222660,166,132,91,85,62,14532,2175290048,2186742674,2194482404,2149341339,2158790098,2163695680,2165661778,2148994541,1271,2,15,53089
1371770675,5806,86.4300003051757800,21.9127006530761720,35.2513008117675800,238.9998931884765600,105.6586990356445300,21.9065895080566400,28.9875907897949220,99,123,89,84,61,14582,2180582875,2193198116,2200472475,2149612324,2160941705,2166632493,2168309348,2149292315,1401,2,16,58791
1371770774,5808,84.2399978637695300,22.1436004638671880,35.2787017822265600,240.2333984375000000,98.1851882934570300,22.1363792419433600,28.8363609313964840,78,117,89,83,59,14632,2185109293,2198279680,2205118811,2149918857,2163269878,2169808612,2170832091,2149559469,796,2,15,15588
1371770875,5810,81.7399978637695300,22.2329998016357420,35.2807006835937500,241.3988952636718800,95.2055511474609400,22.2280406951904300,28.7456703186035160,72,117,91,83,60,14643,2191345170,2205263533,2211672749,2150352630,2167098678,2174892269,2174972105,2149993581,3393,2,16,29886
1371770930,5804,79.8099975585937500,22.3372001647949220,35.2807998657226560,242.0818023681640600,91.8223037719726600,22.3321609497070300,28.6720695495605470,71,118,90,82,58,14638,2196437485,2210739565,2216728978,2150789540,2170444982,2179228105,2178318372,2150343515,2788,1,16,28852
1371770985,5807,78.2900009155273400,22.4542007446289060,35.2797012329101560,242.4167938232422000,88.0650177001953100,22.4478397369384770,28.6096496582031250,68,117,90,83,57,14642,2200059190,2214085412,2219320018,2150975314,2173126052,2182490368,2180644507,2150585682,2282,2,16,21780
1371771073,5808,76.5899963378906200,22.5550994873046880,35.2566986083984400,243.7221069335937500,84.5586166381836000,22.5558490753173830,28.5069694519042970,64,117,90,84,58,14650,2204784576,2218200676,2222227136,2151232146,2176846985,2186669074,2183211364,2150829010,2538,2,16,34867
1371771196,5805,73.8799972534179700,22.7922992706298830,35.2484016418457000,245.8710021972656200,76.6113510131836000,22.8008003234863280,28.3122501373291000,62,119,92,83,58,14637,2217723986,2230149202,2231958518,2152079744,2185988937,2196873161,2190340032,2151575597,2178,2,16,40926
1371771251,5808,71.6399993896484400,23.0189990997314450,35.2645988464355500,247.0251007080078000,69.5988693237304700,23.0171604156494140,28.1740303039550780,63,121,91,83,57,14629,2228963355,2241676608,2243192320,2153070098,2193116269,2204964068,2196277760,2152265490,1582,2,16,17235
1371771306,5808,69.0999984741211000,23.2420005798339840,35.2942008972168000,248.6674041748047000,64.0087890625000000,23.1897697448730470,28.0330200195312500,61,121,88,84,55,14625,2237629028,2249883081,2250522962,2154079661,2199923465,2212285805,2201490038,2152860626,1209,2,16,17696
1371771361,5808,66.2699966430664000,23.2693996429443360,35.3047981262207000,249.9981994628906200,61.7527885437011700,23.2594699859619140,27.9477100372314450,61,122,90,83,57,14623,2246709522,2258512073,2258628800,2155412891,2207212909,2219988964,2207040036,2153623369,1274,2,15,64421
1371771416,5809,63.1100006103515600,23.5170993804931640,35.2953987121582000,250.4768981933593800,53.8847808837890600,23.5027198791503900,27.8298492431640620,60,124,92,84,58,14625,2256380315,2268071808,2267626742,2156883492,2215478628,2228707401,2213328155,2154422034,1774,1,16,44328
1371771473,5810,60.2900009155273440,23.6497993469238280,35.3123016357421900,251.8614959716797000,49.6419715881347660,23.6340103149414060,27.7184391021728500,60,122,91,84,58,14630,2266868379,2279026816,2279199515,2159128018,2222867958,2236487652,2218996214,2155309677,1505,1,16,16388
1371771528,5806,58.2599983215332000,23.6811008453369140,35.3124008178710940,252.7115936279297000,48.1354789733886700,23.6806507110595700,27.6638107299804700,59,121,91,85,56,14621,2272529225,2284208649,2283915401,2160073161,2228285110,2242086912,2223058176,2155848713,1121,2,16,3525
1371771583,5809,56.9900016784668000,23.7031002044677730,35.3028984069824200,253.1459960937500000,47.2311706542968750,23.7086505889892580,27.6343498229980470,59,120,91,84,53,14610,2273444370,2284014116,2283013677,2160498953,2232324059,2246086034,2225781092,2156154715,814,2,16,31681
1371771903,5810,55.2400016784668000,24.2145996093750000,35.2778015136718750,252.7964935302734400,32.1197509765625000,24.1771202087402340,27.4637508392334000,58,124,91,84,56,14610,2292303168,2302603392,2300761462,2163526857,2250470025,2262705947,2235558418,2157404818,17,2,16,6699
1371771969,5806,52.8699989318847660,24.2460002899169920,35.2753982543945300,252.8072967529297000,29.8872604370117200,24.2464294433593750,27.4359092712402340,57,124,94,85,56,14605,2250981302,2254270637,2249884105,2158769746,2228213467,2235028516,2212478080,2154627602,511,1,16,7801
1371772024,5807,50.7999992370605500,24.2472000122070300,35.2729988098144500,252.7794952392578000,29.6484794616699220,24.2538394927978500,27.4342308044433600,57,124,90,84,54,14595,2264400073,2268405284,2264355748,2161536475,2237691821,2244556635,2219487762,2155734262,714,1,16,32037
1371772079,5809,49.1100006103515600,24.2471008300781250,35.2666015625000000,252.7969055175781200,29.4910202026367200,24.2587299346923830,27.4313697814941400,55,124,92,86,56,14605,2270990509,2274748123,2270729261,2163600676,2245934582,2253139483,2225855625,2156709622,359,1,15,15693
1371772168,5806,47.1699981689453100,24.4536991119384770,35.2356986999511700,251.7144927978515600,23.4125499725341800,24.4475803375244140,27.4027500152587900,56,124,91,85,54,14604,2321787291,2329617801,2326391488,2172664667,2288364096,2297913654,2258670400,2161193179,3161,1,16,39605
1371772532,5806,44.5699996948242200,25.3696002960205080,35.2892990112304700,244.5948944091797000,-6.4871101379394530,25.3794593811035160,27.3424797058105470,54,120,91,84,55,14616,2349952530,2354260534,2348024173,2179216950,2327905819,2330474907,2276727259,2163847323,44,1,16,65530
1371772587,5805,42.2700004577636700,25.5851001739501950,35.3003005981445300,242.8780059814453000,-12.6851797103881840,25.5732898712158200,27.3414897918701170,53,123,94,86,56,14615,2358743222,2363020553,2357695561,2184197403,2341185965,2342582537,2284978998,2165548187,188,1,16,34528
1371772642,5805,40.7200012207031250,25.6399993896484380,35.3045997619628900,241.8094940185547000,-15.0930204391479500,25.6486606597900400,27.3588409423828120,53,122,89,85,54,14600,2354381888,2356379209,2349930121,2184037074,2343560521,2343348370,2284262884,2165526573,288,1,16,23298
1371772708,5808,39.5299987792968750,25.7789001464843750,35.3114013671875000,240.1911010742187500,-19.2450599670410160,25.7786998748779300,27.3792495727539060,55,120,93,85,56,14618,2374741888,2378893769,2373263305,2190312448,2357276937,2356799241,2294382226,2167565577,3469,1,16,8412
1371772819,5807,37.1699981689453100,25.8780994415283200,35.3055992126464840,237.8695983886718800,-22.5315494537353500,25.8817100524902340,27.4421195983886720,53,119,91,85,60,14614,2389767012,2395034331,2390073517,2198734226,2382087524,2377935177,2307882459,2170444900,2876,1,16,17342
1371772885,5806,35.3100013732910160,26.0342006683349600,35.2915992736816400,235.9730987548828000,-26.8893299102783200,26.0184097290039060,27.4737205505371100,53,119,93,84,56,14613,2394473581,2398603072,2392627145,2201883419,2403896576,2396723785,2318788425,2173067648,2504,1,17,37633